• MPC Preparation (Info)

  • MPEC 2013-F44 : 2013 FD11

    The following Minor Planet Electronic Circular may be linked-to from your own Web pages, but must not otherwise be redistributed electronically.

    A form allowing access to any MPEC is at the bottom of this page.


    Read MPEC 2013-F43 Read MPEC 2013-F45


    M.P.E.C. 2013-F44                                Issued 2013 Mar. 23, 10:43 UT
    
         The Minor Planet Electronic Circulars contain information on unusual
             minor planets and routine data on comets.  They are published
       on behalf of Commission 20 of the International Astronomical Union by the
              Minor Planet Center, Smithsonian Astrophysical Observatory,
                              Cambridge, MA 02138, U.S.A.
    
                 Prepared using the Tamkin Foundation Computer Network
    
                                  MPC@CFA.HARVARD.EDU
                URL https://www.minorplanetcenter.net/    ISSN 1523-6714
    
                                       2013 FD11
    
    Observations:
         K13F11D* C2013 03 20.41373 11 47 57.774-29 45 09.86         18.6 rLEF044F51
         K13F11D  C2013 03 20.43667 11 47 57.814-29 45 15.24         18.5 iLEF044F51
         K13F11D  C2013 03 20.44856 11 47 57.838-29 45 17.97         18.5 iLEF044F51
         K13F11D |C2013 03 21.17594 11 48 08.58 -29 47 33.4          19.0 VuEF044807
         K13F11D |C2013 03 21.17793 11 48 08.58 -29 47 33.8          19.1 VuEF044807
         K13F11D |C2013 03 21.17968 11 48 08.59 -29 47 34.1          19.0 VuEF044807
         K13F11D |C2013 03 21.18154 11 48 08.60 -29 47 34.4          19.0 VuEF044807
         K13F11D |C2013 03 21.18340 11 48 08.61 -29 47 34.9          19.0 VuEF044807
         K13F11D KC2013 03 21.26797411 48 09.46 -29 48 16.8          19.2 VuEF044H21
         K13F11D KC2013 03 21.30080411 48 09.62 -29 48 22.5          19.1 VuEF044H21
         K13F11D  C2013 03 21.59130 11 48 14.82 -29 49 15.7          18.4 RoEF044300
         K13F11D  C2013 03 21.59294 11 48 14.85 -29 49 16.1          18.3 RoEF044300
         K13F11D  C2013 03 21.59459 11 48 14.86 -29 49 16.9          18.5 RoEF044300
         K13F11D  C2013 03 21.59788 11 48 14.89 -29 49 18.1          18.3 RoEF044300
         K13F11D  C2013 03 21.59953 11 48 14.94 -29 49 18.4          18.7 RoEF044300
         K13F11D KC2013 03 21.98890 11 48 20.35 -29 50 25.8                tEF044204
         K13F11D KC2013 03 22.00158 11 48 20.46 -29 50 28.0          18.4 RtEF044204
         K13F11D |C2013 03 22.08809 11 48 23.16 -29 50 13.2          19.0 VuEF044807
         K13F11D |C2013 03 22.09061 11 48 23.17 -29 50 13.6          19.0 VuEF044807
         K13F11D |C2013 03 22.09311 11 48 23.19 -29 50 14.1          19.1 VuEF044807
         K13F11D |C2013 03 22.09561 11 48 23.21 -29 50 14.6          19.1 VuEF044807
         K13F11D |C2013 03 22.09812 11 48 23.22 -29 50 15.1          19.2 VuEF044807
         K13F11D  C2013 03 22.27187 11 48 25.06 -29 51 07.2                oEF044711
         K13F11D  C2013 03 22.27616 11 48 25.09 -29 51 07.9                oEF044711
         K13F11D  C2013 03 22.28052 11 48 25.08 -29 51 08.6                oEF044711
         K13F11D KC2013 03 22.29149 11 48 24.00 -29 50 42.6          18.7 RcEF044821
         K13F11D KC2013 03 22.30964 11 48 24.16 -29 50 44.3          18.5 RcEF044821
         K13F11D KC2013 03 22.32414 11 48 24.25 -29 50 45.6          18.7 RcEF044821
         K13F11D `C2013 03 22.70672511 48 30.75 -29 51 39.3          18.3 RqEF044D90
         K13F11D `C2013 03 22.72107411 48 30.86 -29 51 40.6          18.7 RqEF044D90
         K13F11D `C2013 03 22.73542611 48 30.99 -29 51 41.7          18.8 RqEF044D90
         K13F11D KC2013 03 23.21489 11 48 39.63 -29 52 39.9          19.2 VuEF044I48
         K13F11D KC2013 03 23.23381 11 48 39.82 -29 52 42.0          18.8 VuEF044I48
         K13F11D |C2013 03 23.23494 11 48 39.93 -29 52 44.5          18.9 VuEF044807
         K13F11D |C2013 03 23.23994 11 48 39.95 -29 52 44.9          19.1 VuEF044807
         K13F11D |C2013 03 23.24244 11 48 39.97 -29 52 45.1          19.0 VuEF044807
         K13F11D KC2013 03 23.24343 11 48 39.87 -29 52 42.0                uEF044I48
         K13F11D |C2013 03 23.24745 11 48 39.99 -29 52 45.4          18.9 VuEF044807
         K13F11D  C2013 03 23.25900 11 48 41.09 -29 53 11.6                oEF044711
         K13F11D  C2013 03 23.26267 11 48 41.11 -29 53 12.0                oEF044711
         K13F11D  C2013 03 23.26610 11 48 41.11 -29 53 12.4                oEF044711
    
    Observer details:
    204 Schiaparelli Observatory.  Observer L. Buzzi.  0.38-m f/6.8 reflector
        + CCD.
    300 Bisei Spaceguard Center--BATTeRS.  Observers A. Asami, S. Urakawa.  1.0-m
        f/3.0 reflector + CCD.
    711 McDonald Observatory.  Observer J. G. Ries.  2.1-m reflector + CCD + focal
        reducer.
    807 Cerro Tololo.  Observers T. Linder, R. Holmes, H. Tanquary.  0.41-m f/11
        Ritchey-Chretien + CCD.
    821 Cordoba-Bosque Alegre.  Observers C. Colazo, R. Melia.  1.54-m f/4.8
        reflector + CCD.
    D90 RAS Observatory, Moorook.  Observer K. Hills.  0.41-m f/9 Ritchey-Chretien
        + CCD.
    F51 Pan-STARRS 1, Haleakala.  Observers N. Primak, A. Schultz, S. Watters,
        T. Goggia.  Measurer PS1 Science Consortium.  1.8-m Ritchey-Chretien
        + CCD.
    H21 Astronomical Research Observatory, Westfield.  Observer R. Holmes.
        Measurers S. Foglia, L. Buzzi, T. Linder, T. Vorobjov.  0.61-m f/4.5
        astrograph + CCD.
    I48 Observatorio El Catalejo, Santa Rosa.  Observer J. Spagnotto.  0.20-m f/5
        reflector + CCD.
    
    Orbital elements:
    2013 FD11                                                Earth MOID = 0.2228 AU
    Epoch 2013 Apr. 18.0 TT = JDT 2456400.5                 MPC
    M 354.28035              (2000.0)            P               Q
    n   0.36942685     Peri.  339.47195     -0.78601982     +0.60581826
    a   1.9236102      Node   238.42137     -0.54512204     -0.77314696
    e   0.3627830      Incl.    8.30910     -0.29157300     -0.18769129
    P   2.67           H   19.8           G   0.15           U   7
    Residuals in seconds of arc
    130320 F51  0.0   0.0     130321 300  0.4+  0.7-    130322 D90  0.0   0.2+
    130320 F51  0.0   0.0     130321 204  0.2-  0.2+    130322 D90  0.0   0.0
    130320 F51  0.0   0.0     130322 204  0.2+  0.1-    130322 D90  0.1+  0.0
    130321 807  0.0   0.0     130322 807  0.1+  0.0     130323 I48  0.3-  0.3-
    130321 807  0.1-  0.0     130322 807  0.0   0.1+    130323 I48  0.6+  0.9-
    130321 807  0.1-  0.0     130322 807  0.1+  0.1+    130323 807  0.1+  0.2+
    130321 807  0.0   0.1+    130322 807  0.1+  0.1+    130323 807  0.1-  0.2+
    130321 807  0.0   0.0     130322 807  0.1+  0.1+    130323 807  0.0   0.2+
    130321 H21  0.0   0.2-    130322 711  0.3+  0.1+    130323 I48  0.3+  0.2-
    130321 H21  0.0   0.1-    130322 711  0.5+  0.1+    130323 807  0.1-  0.3+
    130321 300  0.7-  0.5+    130322 711  0.1+  0.0     130323 711  0.2-  0.1+
    130321 300  0.4-  0.4+    130322 821  0.1-  0.1+    130323 711  0.2-  0.1+
    130321 300  0.3-  0.1-    130322 821  0.1+  0.1+    130323 711  0.4-  0.1+
    130321 300  0.1-  0.7-    130322 821  0.4-  0.1+
    
    Ephemeris:
    2013 FD11                a,e,i = 1.92, 0.36, 8                   q = 1.2258
    Date    TT    R. A. (2000) Decl.     Delta      r     Elong.  Phase     V
    2013 02 21    11 40 26.0 -24 17 41   0.4764  1.3865   139.6    27.5    20.1
    ...
    2013 03 08    11 45 26.7 -28 04 28   0.3863  1.3307   146.1    24.6    19.5
    ...
    2013 03 16    11 47 02.1 -29 20 43   0.3477  1.3047   148.8    23.3    19.2
    ...
    2013 03 22    11 48 20.7 -29 50 01   0.3230  1.2872   150.4    22.5    19.0
    2013 03 23    11 48 36.6 -29 52 19   0.3192  1.2845   150.7    22.3    18.9
    2013 03 24    11 48 53.6 -29 53 51   0.3155  1.2818   150.9    22.2    18.9
    ...
    2013 03 30    11 51 06.5 -29 46 12   0.2952  1.2669   152.0    21.7    18.7
    ...
    2013 04 07    11 55 59.9 -28 48 46   0.2733  1.2503   152.8    21.5    18.5
    ...
    2013 04 22    12 14 17.0 -24 41 12   0.2483  1.2305   152.3    22.3    18.3
    
    A. U. Tomatic                (C) Copyright 2013 MPC           M.P.E.C. 2013-F44
    

    Read MPEC 2013-F43 Read MPEC 2013-F45


    MPEC number:

    Enter an MPEC number in one of the following forms:

    • 1997-B01 (the full form)
    • J97B01 (the packed version of the full form)
    • B01 (the abbreviated form)